Regional Weather Roundup
Issued by NWS Wakefield, VA

Home | Current Version | Previous Version | Graphics & Text | Print | Product List | Glossary On
Versions: 1 2 3 4 5 6 7 8 9 10 11 12 13 14 15 16 17 18 19
000
ASUS41 KAKQ 301515
RWRAKQ

REGIONAL WEATHER ROUNDUP
NATIONAL WEATHER SERVICE WAKEFIELD VA
1100 AM EDT THU JUL 30 2015

Note: "fair" indicates few or no clouds below 12,000 feet with no
significant weather and/or obstructions to visibility. * = Denotes
station may not report precipitation (e.g., rain,snow,etc.),
thunder or fog.

VAZ042-051-052>054-056-301600-
NORTHERN VIRGINIA

CITY           SKY/WX    TMP DP  RH WIND       PRES   REMARKS
WASH NATIONAL  PTSUNNY   88  76  67 S10G18    29.92R HX  99
DULLES         PTSUNNY   82  75  79 SW8       29.93R
FORT BELVOIR   MOSUNNY   84  75  73 SE8       29.92R
QUANTICO       PTSUNNY   89  73  60 S7        29.95R HX  96
FREDERICKSBRG* SUNNY     88  75  66 S9        29.92S HX  98
STAFFORD*      SUNNY     85  73  65 S7        29.97R
WARRENTON      MOSUNNY   87  78  75 SW7       29.93R HX 100
CULPEPER*      MOSUNNY   84  76  76 CALM      29.94R
MANASSAS*      SUNNY     84  75  74 SW5       29.92S
LEESBURG*      MOSUNNY   88  79  74 SW12      29.93S HX 102
WINCHESTER     CLOUDY    86  73  66 SW6       29.95R
FRONT ROYAL*   CLOUDY    82  73  74 SW6       29.93S
LURAY*         PTSUNNY   84  75  74 SW6       29.96R
$$

VAZ048-049-060>072-079>083-301600-
CENTRAL AND SOUTH CENTRAL VIRGINIA

CITY           SKY/WX    TMP DP  RH WIND       PRES   REMARKS
RICHMOND       PTSUNNY   86  74  67 S8        29.95S
CHESTERFIELD*  FAIR      86  66  51 S10       29.96F
PETERSBURG*    PTSUNNY   86  78  76 SW7       29.96F HX  98
HANOVER        SUNNY     85  74  69 S8        29.96S
TAPPAHANNOCK*  SUNNY     84  71  63 S9        29.95F
QUINTON*       PTSUNNY   84  73  68 S3        29.95S
CHARLOTTSVILLE MOSUNNY   86  76  71 S7        29.94S HX  96
GORDONSVILLE*  FAIR      82  75  78 S6        29.94R
ORANGE*        MOSUNNY   86  77  74 S7        29.95S HX  97
LOUISA*        MOSUNNY   88  75  66 SW6       29.93F HX  97
BUMPASS*       FAIR      84  75  74 S5        29.94S
FARMVILLE*     MOSUNNY   85  74  67 S5        29.95S
CREWE*         FAIR     N/A N/A N/A S3        29.95F
FORT PICKETT*  FAIR      85  74  69 SW8       29.97S
CHASE CITY*    FAIR      87  78  73 CALM      29.97S HX  99
CLARKSVILLE*   FAIR      84  73  70 SW6       29.97S
SOUTH HILL*    SUNNY     83  74  73 S6        30.02F
LAWRENCEVILLE* FAIR      84  75  74 SW6       29.97S
EMPORIA*       SUNNY     84  70  61 S5        29.98S
$$

VAZ088>098-301600-
SOUTHEAST VIRGINIA

CITY           SKY/WX    TMP DP  RH WIND       PRES   REMARKS
NORFOLK        SUNNY     88  69  53 VRB5      29.96S
VIRGINIA BEACH MOSUNNY   89  74  60 S7        29.95S HX  98
NORFOLK NAVAL  MOSUNNY   86  71  60 VRB5      29.97S
WEST POINT*    MOSUNNY   87  70  57 S5        29.97S
SALUDA*        FAIR      84  75  73 S3        29.95S
NEWPORT NEWS   SUNNY     86  71  60 VRB5      29.95F
LANGLEY AFB    SUNNY     85  71  63 W5        29.95F
FORT EUSTIS    SUNNY     85  74  70 S6        29.94F
WILLIAMSBURG*  SUNNY     88  75  66 S5        29.97F HX  97
HR EXEC AP*    FAIR      86  73  66 SW3       29.98S
FRANKLIN*      SUNNY     86  73  64 W3        29.96F
WAKEFIELD      SUNNY     86  73  65 VRB5      29.96F
$$

VAZ020-022-025-037-045-301600-
WEST CENTRAL AND SOUTHWEST VIRGINIA

CITY           SKY/WX    TMP DP  RH WIND       PRES   REMARKS
STAUNTON*      PTSUNNY   85  73  67 SW7       30.00S
WAYNESBORO*    FAIR      79  72  78 W6        30.00S
HOT SPRINGS VA LGT RAIN  69  69 100 NW8       30.14R VSB<1/4
LYNCHBURG      PTSUNNY   81  74  79 SW5       29.99S
DANVILLE       SUNNY     86  75  69 W6        29.97F HX  95
SOUTH BOSTON*  FAIR      85  75  70 S6        29.96S
MARTINSVILLE   MOSUNNY   86  72  62 NW5       30.02S
ROANOKE        PTSUNNY   79  71  76 W8        30.03S
BLACKSBURG     LGT RAIN  75  73  95 W5        30.11R
DUBLIN*          N/A     80  74  81 CALM      30.09S
MARION*        CLOUDY    76  71  85 W7        30.14S
HILLSVILLE*    PTSUNNY   78  71  79 NW9       30.10S
RICHLANDS*     CLOUDY    72  72  98 NW5       30.13S FOG
WISE*          CLOUDY    73  73 100 CALM      30.16R
ABINGDON*      CLOUDY    80  70  73 CALM      30.10S
$$

MDZ021>025-VAZ099-100-301600-
SOUTHERN MARYLAND AND THE DELMARVA PENINSULA

CITY           SKY/WX    TMP DP  RH WIND       PRES   REMARKS
PATUXENT RIVER PTSUNNY   83  73  72 S9        29.93S
BAY BRIDGE APT   N/A     82  72  69 S10       29.92S
LEONARDTOWN    MOSUNNY   82  70  65 S5        29.95S
DOVER          MOSUNNY   85  75  71 SW14      29.91S
GEORGETOWN     MOSUNNY   85  75  72 SW12      29.95S
EASTON         MOSUNNY   86  73  66 SW13      29.96S
CAMBRIDGE      MOSUNNY   84  70  61 S10G16    29.94R
SALISBURY      MOSUNNY   84  74  71 SW8       29.95S
OCEAN CITY     MOSUNNY   83  73  72 SW12G17   29.96R
WALLOPS ISLAND SUNNY     83  76  79 S12       29.97S
ACCOMACK*      PTSUNNY   86  77  74 S8        29.96S HX  97
$$

NCZ012>017-030>032-301600-
NORTH CENTRAL AND EASTERN NORTH CAROLINA

CITY           SKY/WX    TMP DP  RH WIND       PRES   REMARKS
ROANOKE RAPIDS FAIR      84  72  65 CALM      29.97S
RALEIGH        MOSUNNY   87  72  60 SW5       29.98S
ELIZABETH CITY SUNNY     85  75  72 CALM      29.96S
AHOSKIE*       SUNNY     83  71  66 CALM      29.97R
EDENTON*         N/A     86  74  67 S5        29.97R
CURRITUCK*     MOSUNNY   87  72  60 E3        29.97S
KILL DEVIL HLS CLOUDY    85  76  74 E8        29.96R
MANTEO         SUNNY     86  76  73 S9        29.97R HX  96
CAPE HATTERAS  PTSUNNY   83  77  82 SW7       29.98R
TARBORO*         N/A     87  71  58 E3        29.98R
GOLDSBORO      SUNNY     86  72  62 E3        29.96R
WASHINGTON     SUNNY     85  75  73 CALM      29.96S
GREENVILLE     SUNNY     86  73  66 CALM      29.98S
NEW BERN       MOSUNNY   87  76  69 CALM      29.96S HX  97
WILMINGTON     SUNNY     87  74  64 N7        29.96S HX  95
$$

VAZ048-301600-
ELSEWHERE

CITY           SKY/WX    TMP DP  RH WIND       PRES   REMARKS
HARRISBURG PA  PTSUNNY   83  74  74 NW8       29.89R
BALTIMORE      PTSUNNY   85  74  69 S8        29.91R
ANNAPOLIS      MOSUNNY   84  73  69 S7        29.91S
ANDREWS AFB    MOSUNNY   86  73  66 SW13      29.92R
PHILADELPHIA   PTSUNNY   86  73  65 S13G23    29.90S
HENDERSON NC   SUNNY     85  69  60 S6        29.98S
GREENSBORO     PTSUNNY   86  72  62 W7        29.99S
ROCKY MOUNT    SUNNY     88  68  51 CALM      29.97S
$$

VAZ100-301600-
MARINE

STATION/POSITION TIME  TEMP    WIND        PRES    WAVE   SWELL
                       AIR SEA DIR/SP/G            HT/PER HT/PER
                 (UTC) (F)     (DEG/KT/KT) (MB)    (FT/S) (FT/S)
BRANDYWINE LGT   1400          200/ 13/ 14   N/A
CAPE MAY NJ      1400          170/  9/ 14   N/A
LEWES DE         1400          190/  5/ 10   N/A
15NM E FENWICK I 1450   79 79  190/ 14/ 16 1014.6R   3/10   2/10
OCEAN-CITY-INLET 1400          200/  8/ 10   N/A
WACHAPREAGUE VA  1400          230/  6/ 12   N/A
GOOSES REEF MD   1500   83 82  210/ 10/ 12 1014.5R
COVE POINT MD    1400   81     220/ 11/ 15 1014.1F
SOLOMONS ISLAND  1400      83                N/A
BISHOPS HEAD MD  1400          200/ 11/ 14   N/A
POTOMAC MD       1500   83 83  210/ 10/ 12 1012.9F   1/ 2
CAMBRIDGE MD     1400          190/  9/ 14   N/A
LEWISETTA VA     1400   82 83  220/  9/ 11 1013.4F
RAPPAHANNOCK LGT 1400          190/ 10/ 11 1015.1R
STINGRAY PT      1500   83 83  180/  6/  8 1014.5S   1/ 2
YORK RVR RNG VA  1400          200/  6/  7   N/A
YORKTOWN VA      1400          210/  5/  6   N/A
JAMESTOWN VA     1500   83 86   CALM  /  2   N/A
DOMINION TERM VA 1400   81     230/  6/  7 1014.5F
KIPTOPEKE VA     1400      81  190/  7/  9   N/A
CHES BAY BRIDGE  1400          140/  3/  4   N/A
CAPE HENRY VA    1400          120/  8/ 12   N/A
CHESAPEAKE LGHT  1400   80     160/  8/  8 1015.2F
WILLOUBY STN VA  1400   81     240/  6/  7 1015.5F
CAPE HENRY BUOY  1428      81                N/A     3/ 6
1ST LANDING BUOY 1500      80              1014.3R   1/ 4
CAPE CHARLES BUO 1426      81                N/A     2/ 6   2/ 6
OFFSHORE WE BUOY 1411      81                N/A     3/ 6   3/ 6
64NM E OF VA BCH 1450   81 82  160/ 10/ 12 1014.6R   3/ 9   3/ 9
DUCK PIER NC     1400          110/  5/  5   N/A
44100 DUCK FRF   1424      81                N/A     2/ 9
44056 DUCK FRF   1411      72                N/A     2/10
OREGON INLET NC  1400          120/  7/ 10   N/A
HATTERAS NC      1400          200/  7/ 11   N/A
DIAMOND SHLS NC  1450   83 85  170/ 19/ 25 1014.7R   4/ 8   2/ 8
CAPE LOOKOUT NC  1500   80     160/ 17/ 22 1014.4R
$$



USA.gov is the U.S. government's official web portal to all federal, state and local government web resources and services.